Location: La Savane
(18.0962°N, 63.0646°W)
Time: 17:59:17
(UTC+00:00)

Cosmos 1346 Rocket - Pass Details

Date: 29 October 2020
Orbit: 535 x 543 km, 81.2° (Epoch: 27 November)

Event Time Altitude Azimuth Distance (km) Brightness Sun altitude
Rises 22:23:14 0° 11° (N) 2,697 6.1 -10.6°
Reaches altitude 10° 22:25:40 10° 24° (NNE) 1,804 5.1 -11.2°
Maximum altitude 22:29:00 26° 82° (E) 1,096 3.7 -11.9°
Drops below altitude 10° 22:32:20 10° 139° (SE) 1,799 5.1 -12.7°
Sets 22:34:45 0° 152° (SSE) 2,688 6.2 -13.3°
